| time (UTC) | temp F | wind direction | speed MPH | gust MPH | rain 1hr in | rain 24hr in | rain mn in | humidity % | barometer mb |
| 20260502194531 | 48 | 330 | 4.0 | 9.0 | 0.00 | 0.00 | 0.00 | 38 | 1017.7 |
| 20260502194031 | 48 | 301 | 4.0 | 9.0 | 0.00 | 0.00 | 0.00 | 37 | 1017.7 |
| 20260502193532 | 49 | 297 | 5.0 | 10.0 | 0.00 | 0.00 | 0.00 | 38 | 1017.8 |
| 20260502193111 | 49 | 269 | 4.0 | 9.0 | 0.00 | 0.00 | 0.00 | 38 | 1017.8 |
| 20260502192531 | 49 | 281 | 4.0 | 7.0 | 0.00 | 0.00 | 0.00 | 39 | 1017.8 |
| 20260502192051 | 49 | 274 | 3.0 | 6.0 | 0.00 | 0.00 | 0.00 | 37 | 1017.8 |
| 20260502191531 | 49 | 231 | 3.0 | 6.0 | 0.00 | 0.00 | 0.00 | 38 | 1017.8 |
| 20260502191031 | 48 | 234 | 4.0 | 8.0 | 0.00 | 0.00 | 0.00 | 38 | 1018.1 |
| 20260502190531 | 48 | 266 | 5.0 | 11.0 | 0.00 | 0.00 | 0.00 | 38 | 1018.0 |
| 20260502190052 | 48 | 276 | 5.0 | 9.0 | 0.00 | 0.00 | 0.00 | 39 | 1018.1 |
| 20260502185531 | 48 | 247 | 4.0 | 7.0 | 0.00 | 0.00 | 0.00 | 40 | 1018.1 |
| 20260502185031 | 48 | 235 | 5.0 | 8.0 | 0.00 | 0.00 | 0.00 | 39 | 1018.1 |
| 20260502184532 | 48 | 215 | 4.0 | 7.0 | 0.00 | 0.00 | 0.00 | 39 | 1018.1 |
| 20260502184031 | 48 | 220 | 4.0 | 7.0 | 0.00 | 0.00 | 0.00 | 39 | 1018.1 |
| 20260502183531 | 47 | 236 | 5.0 | 12.0 | 0.00 | 0.00 | 0.00 | 40 | 1018.0 |
| 20260502183031 | 47 | 251 | 4.0 | 8.0 | 0.00 | 0.00 | 0.00 | 39 | 1018.1 |
| 20260502182532 | 47 | 224 | 2.0 | 8.0 | 0.00 | 0.00 | 0.00 | 39 | 1018.1 |
| 20260502182112 | 47 | 260 | 4.0 | 7.0 | 0.00 | 0.00 | 0.00 | 39 | 1018.1 |
| 20260502181531 | 47 | 265 | 4.0 | 7.0 | 0.00 | 0.00 | 0.00 | 41 | 1018.4 |
| 20260502181031 | 47 | 257 | 4.0 | 13.0 | 0.00 | 0.00 | 0.00 | 41 | 1018.4 |
| 20260502180531 | 47 | 250 | 3.0 | 5.0 | 0.00 | 0.00 | 0.00 | 40 | 1018.4 |
| 20260502164051 | 46 | 248 | 3.0 | 4.0 | 0.00 | 0.00 | 0.00 | 41 | 1018.8 |
| 20260502163531 | 45 | 313 | 3.0 | 7.0 | 0.00 | 0.00 | 0.00 | 41 | 1018.8 |
| 20260502163031 | 46 | 325 | 4.0 | 7.0 | 0.00 | 0.00 | 0.00 | 42 | 1018.8 |
| 20260502162531 | 45 | 316 | 5.0 | 8.0 | 0.00 | 0.00 | 0.00 | 42 | 1018.8 |
| 20260502162031 | 46 | 304 | 2.0 | 7.0 | 0.00 | 0.00 | 0.00 | 41 | 1018.8 |
| 20260502161612 | 45 | 260 | 3.0 | 6.0 | 0.00 | 0.00 | 0.00 | 41 | 1018.8 |
| 20260502161031 | 46 | 291 | 4.0 | 7.0 | 0.00 | 0.00 | 0.00 | 42 | 1018.8 |
| 20260502160533 | 45 | 329 | 4.0 | 7.0 | 0.00 | 0.00 | 0.00 | 43 | 1018.4 |
| 20260502152031 | 45 | 359 | 4.0 | 9.0 | 0.00 | 0.07 | 0.00 | 46 | |
| 20260502151531 | 45 | 11 | 4.0 | 10.0 | 0.00 | 0.07 | 0.00 | 46 | |
| 20260502151031 | 45 | 18 | 4.0 | 11.0 | 0.00 | 0.07 | 0.00 | 45 | |
| 20260502150531 | 44 | 337 | 4.0 | 8.0 | 0.00 | 0.07 | 0.00 | 48 | |
| 20260501225031 | 48 | 321 | 3.0 | 6.0 | 2.19 | 2.51 | 2.50 | 55 | 1015.5 |
| 20260501224530 | 48 | 299 | 5.0 | 6.0 | 2.19 | 2.51 | 2.50 | 54 | 1015.1 |
| 20260501224051 | 48 | 350 | 4.0 | 4.0 | 2.19 | 2.51 | 2.50 | 55 | 1015.1 |
| 20260501222531 | 50 | 341 | 4.0 | 7.0 | 1.46 | 1.78 | 1.77 | 50 | 1015.1 |
| 20260501211530 | 50 | 322 | 5.0 | 9.0 | 0.00 | 0.32 | 0.31 | 49 | 1014.5 |
| 20260501210550 | 50 | 334 | 5.0 | 8.0 | 0.00 | 0.32 | 0.31 | 49 | 1014.5 |
| 20260501201530 | 51 | 3 | 2.0 | 5.0 | 0.25 | 0.32 | 0.31 | 46 | 1014.5 |
| 20260501200530 | 51 | 293 | 3.0 | 5.0 | 0.25 | 0.32 | 0.31 | 42 | 1014.6 |
| 20260501195530 | 52 | 263 | 3.0 | 7.0 | 0.25 | 0.32 | 0.31 | 43 | 1014.6 |
| 20260501195030 | 52 | 231 | 3.0 | 4.0 | 0.25 | 0.32 | 0.31 | 45 | 1014.2 |